Weather in Posyolok Tekstilshchikov

Russia / Zabaykalsky Krai     52°04′20″N   113°23′04″E
temp.,
°C
wind,
m/s
gust,
m/s
humid.,
%
clouds,
%
prec.,
mm/h
press.,
hPa
HPBL,
m
18 may, wed
wed1800:00+10wsw236760 0.0 100762
03:00+8sw2270100 0.0 100817
06:00+7wsw237996 0.0 100974
09:00+13nw365310 0.0 1008808
12:00+19nw3634100 0.0 10072586
15:00+21nw482583 0.0 10053362
18:00+22n510185 0.0 10053597
21:00+16nnw22354 0.0 100746
19 may, thu
thu1900:00+12wnw11455 0.0 101013
03:00+10w115170 0.0 101210
06:00+8wsw215821 0.0 101315
09:00+15w25445 0.0 1012499
12:00+22wnw47275 0.0 10092148
15:00+25wnw5922100 0.0 10063733
18:00+24w6927100 0.0 10052427
21:00+18nw244085 0.0 100688
20 may, fri
fri2000:00+15w234992 0.0 100790
03:00+12w246284 0.0 100793
06:00+11w11715 0.0 100817
09:00+16w23506 0.0 1007673
12:00+22wnw59235 0.0 10042658
15:00+25nw711155 0.0 10013830
18:00+25nnw69134 0.0 10013938
21:00+17n24274 0.0 1003105
21 may, sat
sat2100:00+12nnw11360 0.0 100723
03:00+9e224546 0.0 101024
06:00+8ese11513 0.0 101114
09:00+16sse113241 0.0 1011520
12:00+21w232238 0.0 10091614
15:00+24wsw141828 0.0 10061953
18:00+25wsw371993 0.0 10023038
21:00+17wnw4963100 0.6 1004375
22 may, sun
sun2200:00+14wnw59609 0.0 1006714
03:00+11wnw411684 0.0 1007581
06:00+10w514692 0.0 10061058
09:00+15wnw8144489 0.0 10051593
12:00+19nw7112740 0.0 10032609
15:00+22nw61121100 0.0 10013739
18:00+20w89298 0.0 10002927
21:00+15wnw510428 0.0 1002832